Location: Tel Aviv
(32.0670°N, 34.7670°E)
Time: 22:33:20
(UTC+02:00)

Altair - Visible Passes

Search period start: 25 January 2022 00:00
Search period end: 04 February 2022 00:00
Orbit: 1501 x 1683 km, 47.2° (Epoch: 24 January)

Date Brightness Start Highest point End Pass type
(mag) Time Alt. Az. Time Alt. Az. Time Alt. Az.
25 Jan 9.4 02:05:09 19° NE 02:05:09 19° NE 02:07:42 10° NE visible
25 Jan 8.4 04:03:10 31° NNW 04:05:02 33° N 04:13:58 10° ENE visible
25 Jan 8.3 06:02:23 10° NW 06:12:11 49° NNE 06:21:47 10° E visible
26 Jan 9.6 01:41:17 14° NE 01:41:17 14° NE 01:42:26 10° NE visible
26 Jan 8.5 03:39:17 33° N 03:39:37 33° N 03:48:34 10° ENE visible
26 Jan 8.3 05:37:18 11° NW 05:46:51 47° NNE 05:56:25 10° E visible
27 Jan 8.6 03:15:25 33° N 03:15:25 33° N 03:23:10 10° ENE visible
27 Jan 8.3 05:13:26 15° NW 05:21:29 44° NNE 05:31:00 10° E visible
28 Jan 8.8 02:51:33 30° NNE 02:51:33 30° NNE 02:57:47 10° ENE visible
28 Jan 8.4 04:49:35 21° NW 04:56:08 42° NNE 05:05:34 10° E visible
29 Jan 9.1 02:27:43 25° NNE 02:27:43 25° NNE 02:32:24 10° NE visible
29 Jan 8.4 04:25:44 26° NNW 04:30:46 41° NNE 04:40:08 10° E visible
30 Jan 9.3 02:03:53 20° NE 02:03:53 20° NE 02:07:02 10° NE visible
30 Jan 8.4 04:01:54 31° NNW 04:05:23 39° NNE 04:14:42 10° E visible
30 Jan 7.8 06:01:12 10° NW 06:11:27 84° NE 06:21:29 10° SE visible
31 Jan 9.6 01:40:05 15° NE 01:40:05 15° NE 01:41:42 10° NE visible
31 Jan 8.4 03:38:06 35° N 03:39:59 38° NNE 03:49:15 10° E visible
31 Jan 7.8 05:36:07 11° NW 05:46:12 79° NE 05:56:16 10° ESE visible
01 Feb 9.9 01:16:18 10° NE 01:16:18 10° NE 01:16:21 10° NE visible
01 Feb 8.5 03:14:19 37° N 03:14:36 37° NNE 03:23:47 10° ENE visible
01 Feb 7.8 05:12:20 16° NW 05:20:57 74° NE 05:31:01 10° ESE visible
01 Feb 9.4 20:23:39 10° S 20:24:13 12° S 20:24:13 12° S visible
02 Feb 8.6 02:50:35 35° NNE 02:50:35 35° NNE 02:58:20 10° ENE visible
02 Feb 7.8 04:48:36 23° NW 04:55:41 69° NE 05:05:44 10° ESE visible
02 Feb 9.1 19:58:57 10° S 20:00:59 16° S 20:00:59 16° S visible
03 Feb 8.9 02:26:53 30° NE 02:26:53 30° NE 02:32:51 10° ENE visible
03 Feb 7.9 04:24:55 31° NW 04:30:24 65° NNE 04:40:26 10° ESE visible
03 Feb 8.8 19:34:19 10° S 19:37:49 19° SSE 19:37:49 19° SSE visible
03 Feb 9.6 21:35:38 10° SW 21:35:53 11° SW 21:35:53 11° SW visible
